Location: Dodgeville, WI 53533, USA
(43.0344°N, 90.0900°W)
Time: 19:02:52
(UTC-06:00)

N. Korean satellite - Pass Details

Date: 26 January 2021
Orbit: 451 x 502 km, 97.2° (Epoch: 06 March)

Event Time Altitude Azimuth Distance (km) Brightness Sun altitude
Rises 06:07:35 0° 1° (N) 2,504 10.1 -13.5°
Reaches altitude 10° 06:09:50 10° 349° (N) 1,616 9.0 -13.1°
Maximum altitude 06:12:49 28° 289° (WNW) 900 7.3 -12.6°
Drops below altitude 10° 06:15:45 10° 230° (SW) 1,588 8.8 -12.1°
Sets 06:17:56 0° 218° (SW) 2,451 9.9 -11.7°
